Location: Leuk
(46.3174°N, 7.6341°E)
Time: 15:30:56
(UTC+00:00)

Cosmos 614 Rocket - Pass Details

Date: 09 March 2021
Orbit: 734 x 763 km, 74.1° (Epoch: 15 April)

Event Time Altitude Azimuth Distance (km) Brightness Sun altitude
Exits shadow 03:54:15 27° 196° (SSW) 1,444 5.1 -21.3°
Maximum altitude 03:57:11 84° 111° (ESE) 772 4.0 -20.8°
Drops below altitude 10° 04:02:26 10° 23° (NNE) 2,302 7.0 -19.9°
Sets 04:04:48 0° 23° (NNE) 3,229 7.8 -19.5°
